Weather Roundup
Issued by NWS

Home | Current Version | Previous Version | Graphics & Text | Print | Product List | Glossary Off
Versions: 1 2 3 4 5 6 7 8 9 10 11 12 13 14 15 16 17 18 19 20 21 22 23 24 25 26 27 28 29 30 31 32 33 34 35 36 37 38 39 40 41 42 43 44 45 46 47 48 49 50

000
NZUS93 KARX 291410
HRRWXR

CURRENT HOURLY OBSERVATIONS ACROSS
MUCH OF THE UPPER MISSISSIPPI VALLEY
NATIONAL WEATHER SERVICE LA CROSSE WI
900 AM CDT WED JUL 29 2015


...SOUTHEAST MINNESOTA...


CITY           SKY/WX    TMP DP  RH WIND       PRES   REMARKS
ROCHESTER      SUNNY     68  55  63 W16G22    30.03S
ROCHESTER/MAYO FAIR      68  53  58 W16G23    30.01S
WINONA         SUNNY     73  54  49 W10G21    29.98R
AUSTIN         SUNNY     72  52  49 W9G17     30.04S
ALBERT LEA     SUNNY     70  54  56 W10G16    30.05R
DODGE CENTER   SUNNY     66  54  63 W16       30.02S
PRESTON        SUNNY     69  52  55 W15G24    30.04R
OWATONNA       SUNNY     68  55  64 W12G17    30.01S
FARIBAULT      SUNNY     70  55  60 W14G20    30.00S
$$

...ELSEWHERE IN MINNESOTA...


CITY           SKY/WX    TMP DP  RH WIND       PRES   REMARKS
MINNEAPOLIS    SUNNY     70  50  49 SW17G28   29.94S
INTNL FALLS    LGT RAIN  63  55  75 SW14G28   29.56R
DULUTH         PTSUNNY   66  50  56 W25G33    29.74S
RED WING       SUNNY     73  52  46 W15G22    29.94S
REDWOOD FALLS  SUNNY     70  51  51 W17G24    30.00S
MANKATO        SUNNY     68  52  56 W10       30.02R
WORTHINGTON    SUNNY     64  52  63 W10       30.12R
FAIRMONT       SUNNY     68  52  56 W9        30.07R
$$

...SOUTHWEST WISCONSIN...


CITY           SKY/WX    TMP DP  RH WIND       PRES   REMARKS
LA CROSSE      SUNNY     75  52  44 W16       29.98R
PRAIRIE DU CHI PTSUNNY   75  56  51 W6        30.01S
BOSCOBEL       PTSUNNY   75  61  61 SW6       30.01S
LONE ROCK      PTSUNNY   74  59  59 W9        30.00S
PLATTEVILLE    PTSUNNY   73  64  72 NW9       30.03S
FORT MC COY    MOSUNNY   73  52  48 W8        29.98S
CAMP DOUGLAS   MOSUNNY   73  57  56 W13       29.96F
VIROQUA        FAIR      72  55  54 W10G16    30.01F
WIS DELLS      PTSUNNY   74  53  47 W8        29.98S
$$

...ELSEWHERE IN WISCONSIN...


CITY           SKY/WX    TMP DP  RH WIND       PRES   REMARKS
MILWAUKEE      CLOUDY    77  64  64 NW12      29.95R
MADISON        PTSUNNY   73  64  73 NW6       29.98R
GREEN BAY      PTSUNNY   77  58  51 W18G26    29.90F
EAU CLAIRE     SUNNY     71  53  52 W20G25    29.91S
BLACK RVR FLS  FAIR      73  53  49 W9G17     29.96S
MEDFORD        MOSUNNY   68  53  57 SW14G21   29.90F
WAUSAU         MOSUNNY   72  51  47 W15G22    29.90F
WIS RAPIDS     MOSUNNY   73  52  47 W13G21    29.96S
MARSHFIELD     MOSUNNY   71  53  52 W14       29.94S
RICE LAKE      SUNNY     69  50  51 SW18G29   29.90R
$$

...NORTHEAST IOWA...


CITY           SKY/WX    TMP DP  RH WIND       PRES   REMARKS
DECORAH        SUNNY     70  57  64 VRB7      30.03R
MASON CITY     SUNNY     72  56  57 W15       30.08S
CHARLES CITY   SUNNY     72  57  60 W13       30.06S
OELWEIN        MOSUNNY   72  61  68 W8        30.06S
$$

...ELSEWHERE IN IOWA...


CITY           SKY/WX    TMP DP  RH WIND       PRES   REMARKS
DES MOINES     PTSUNNY   75  61  61 NW7       30.11R
IOWA CITY      PTSUNNY   74  65  73 NW7       30.06R
FORT DODGE     SUNNY     70  57  64 W6        30.12R
$$

...NORTHERN ILLINOIS...


CITY           SKY/WX    TMP DP  RH WIND       PRES   REMARKS
CHICAGO-OHARE  CLOUDY    78  72  81 NW9       29.94F
CHICAGO-MIDWAY CLOUDY    79  71  76 NW8       29.95S
MOLINE         CLOUDY    77  68  73 NW7       30.03R
ROCKFORD       PTSUNNY   78  65  63 NW8       30.00R
PEORIA         CLOUDY    78  72  81 NW12      30.01R
$$

NOTE: "FAIR" INDICATES FEW OR NO CLOUDS BELOW 12,000 FEET WITH NO
SIGNIFICANT WEATHER AND/OR OBSTRUCTIONS TO VISIBILITY. WIND
SPEEDS ARE IN MILES-PER-HOUR.



USA.gov is the U.S. government's official web portal to all federal, state and local government web resources and services.